,,,PA_Meas_PMT16A,,PR_Meas_QMR101_102,,RH_Meas_QMH101,,SR_Meas_QMS101,,TA_Meas_QMH101,,GenWind,,GenWind,
date,time,status,PA,status,PR,status,RH,status,SR,status,TA,status,DirAvg,status,SpdAvg,
2012-02-28, 00:00:04,VALID,997.203,VALID,0,VALID,92.8296,VALID,0,VALID,24.1677,VALID,183,VALID,0.435547,
2012-02-28, 00:01:04,VALID,997.186,VALID,0,VALID,92.8296,VALID,0,VALID,24.1677,VALID,183,VALID,0.495703,
2012-02-28, 00:02:04,VALID,997.18,VALID,0,VALID,92.8677,VALID,0,VALID,24.1891,VALID,205,VALID,0.602734,
2012-02-28, 00:03:04,VALID,997.17,VALID,0,VALID,92.9135,VALID,0,VALID,24.1482,VALID,207,VALID,0.382031,
2012-02-28, 00:04:04,VALID,997.154,VALID,0,VALID,92.8983,VALID,0,VALID,24.1287,VALID,207,VALID,0.517578,
2012-02-28, 00:05:04,VALID,997.155,VALID,0,VALID,92.9059,VALID,0,VALID,24.1305,VALID,207,VALID,0.548047,
2012-02-28, 00:06:04,VALID,997.166,VALID,0,VALID,92.9288,VALID,0,VALID,24.111,VALID,207,VALID,0.617578,
2012-02-28, 00:07:04,VALID,997.193,VALID,0,VALID,92.8525,VALID,0,VALID,24.0915,VALID,207,VALID,0.461719,
2012-02-28, 00:08:04,VALID,997.193,VALID,0,VALID,92.7685,VALID,0,VALID,24.0311,VALID,78,VALID,0.550781,
2012-02-28, 00:09:04,VALID,997.175,VALID,0,VALID,92.7762,VALID,0,VALID,23.9726,VALID,78,VALID,0.614844,
2012-02-28, 00:10:04,VALID,997.162,VALID,0,VALID,92.8906,VALID,0,VALID,23.9531,VALID,78,VALID,0.755469,
2012-02-28, 00:11:04,VALID,997.163,VALID,0,VALID,92.9364,VALID,0,VALID,23.9336,VALID,78,VALID,0.794141,
2012-02-28, 00:12:04,VALID,997.181,VALID,0,VALID,93.1195,VALID,0,VALID,23.9336,VALID,78,VALID,0.722266,
2012-02-28, 00:13:04,VALID,997.178,VALID,0,VALID,93.2416,VALID,0,VALID,23.9744,VALID,78,VALID,0.617188,
2012-02-28, 00:14:04,VALID,997.167,VALID,0,VALID,93.234,VALID,0,VALID,23.9921,VALID,78,VALID,0.748438,
2012-02-28, 00:15:04,VALID,997.138,VALID,0,VALID,93.1271,VALID,0,VALID,23.9921,VALID,78,VALID,0.686328,
2012-02-28, 00:16:04,VALID,997.136,VALID,0,VALID,92.944,VALID,0,VALID,24.0134,VALID,79,VALID,0.637109,
2012-02-28, 00:17:04,VALID,997.124,VALID,0,VALID,92.8143,VALID,0,VALID,23.9726,VALID,81,VALID,0.369922,
2012-02-28, 00:18:04,VALID,997.116,VALID,0,VALID,92.7151,VALID,0,VALID,23.9531,VALID,81,VALID,0.230859,
2012-02-28, 00:19:04,VALID,997.129,VALID,0,VALID,92.6846,VALID,0,VALID,23.9549,VALID,81,VALID,0.126172,
2012-02-28, 00:20:04,VALID,997.115,VALID,0,VALID,92.6694,VALID,0,VALID,23.9549,VALID,81,VALID,0.184375,
2012-02-28, 00:21:04,VALID,997.078,VALID,0,VALID,92.6923,VALID,0,VALID,23.8945,VALID,81,VALID,0.114844,
2012-02-28, 00:22:04,VALID,997.063,VALID,0,VALID,92.7228,VALID,0,VALID,23.9159,VALID,81,VALID,0.186719,
2012-02-28, 00:23:04,VALID,997.052,VALID,0,VALID,92.7991,VALID,0,VALID,23.875,VALID,81,VALID,0.367188,
2012-02-28, 00:24:04,VALID,997.021,VALID,0,VALID,92.9135,VALID,0,VALID,23.8945,VALID,81,VALID,0.648828,
2012-02-28, 00:25:04,VALID,996.999,VALID,0,VALID,92.9822,VALID,0,VALID,23.8963,VALID,81,VALID,0.65625,
2012-02-28, 00:26:04,VALID,996.974,VALID,0,VALID,93.089,VALID,0,VALID,23.8945,VALID,80,VALID,0.403516,
2012-02-28, 00:27:04,VALID,996.929,VALID,0,VALID,93.1271,VALID,0,VALID,23.9354,VALID,80,VALID,0.272266,
2012-02-28, 00:28:04,VALID,996.891,VALID,0,VALID,93.1805,VALID,0,VALID,23.9159,VALID,80,VALID,0.387891,
2012-02-28, 00:29:04,VALID,996.86,VALID,0,VALID,93.1805,VALID,0,VALID,23.914,VALID,80,VALID,0.525781,
2012-02-28, 00:30:04,VALID,996.805,VALID,0,VALID,93.1882,VALID,0,VALID,23.8945,VALID,80,VALID,0.401172,
2012-02-28, 00:31:04,VALID,996.822,VALID,0,VALID,93.2187,VALID,0,VALID,23.8945,VALID,80,VALID,0.339844,
2012-02-28, 00:32:04,VALID,996.814,VALID,0,VALID,93.2492,VALID,0,VALID,23.8963,VALID,80,VALID,0,
2012-02-28, 00:33:04,VALID,996.777,VALID,0,VALID,93.2568,VALID,0,VALID,23.8963,VALID,80,VALID,0,
2012-02-28, 00:34:04,VALID,996.76,VALID,0,VALID,93.2645,VALID,0,VALID,23.8963,VALID,81,VALID,0,
2012-02-28, 00:35:04,VALID,996.72,VALID,0,VALID,93.2721,VALID,0,VALID,23.8963,VALID,81,VALID,0,
2012-02-28, 00:36:04,VALID,996.701,VALID,0,VALID,93.2568,VALID,0,VALID,23.8768,VALID,81,VALID,0,
2012-02-28, 00:37:04,VALID,996.7,VALID,0,VALID,93.2721,VALID,0,VALID,23.8555,VALID,88,VALID,0,
2012-02-28, 00:38:04,VALID,996.657,VALID,0,VALID,93.2645,VALID,0,VALID,23.8555,VALID,90,VALID,0,
2012-02-28, 00:39:04,VALID,996.635,VALID,0,VALID,93.3331,VALID,0,VALID,23.8165,VALID,94,VALID,0,
2012-02-28, 00:40:04,VALID,996.602,VALID,0,VALID,93.356,VALID,0,VALID,23.8165,VALID,94,VALID,0,
2012-02-28, 00:41:04,VALID,996.586,VALID,0,VALID,93.4247,VALID,0,VALID,23.8573,VALID,94,VALID,0,
2012-02-28, 00:42:04,VALID,996.549,VALID,0,VALID,93.5239,VALID,0,VALID,23.8555,VALID,94,VALID,0,
2012-02-28, 00:43:04,VALID,996.523,VALID,0,VALID,93.5315,VALID,0,VALID,23.8555,VALID,94,VALID,0,
2012-02-28, 00:44:04,VALID,996.498,VALID,0,VALID,93.562,VALID,0,VALID,23.8555,VALID,94,VALID,0,
2012-02-28, 00:45:04,VALID,996.494,VALID,0,VALID,93.5697,VALID,0,VALID,23.8555,VALID,95,VALID,0,
2012-02-28, 00:46:04,VALID,996.48,VALID,0,VALID,93.562,VALID,0,VALID,23.875,VALID,98,VALID,0,
2012-02-28, 00:47:04,VALID,996.454,VALID,0,VALID,93.5315,VALID,0,VALID,23.8555,VALID,97,VALID,0,
2012-02-28, 00:48:04,VALID,996.444,VALID,0,VALID,93.5163,VALID,0,VALID,23.875,VALID,97,VALID,0,
2012-02-28, 00:49:04,VALID,996.452,VALID,0,VALID,93.501,VALID,0,VALID,23.8768,VALID,86,VALID,0,
2012-02-28, 00:50:04,VALID,996.439,VALID,0,VALID,93.4705,VALID,0,VALID,23.836,VALID,84,VALID,0,
2012-02-28, 00:51:04,VALID,996.474,VALID,0,VALID,93.4476,VALID,0.104696,VALID,23.8573,VALID,76,VALID,0,
2012-02-28, 00:52:04,VALID,996.489,VALID,0,VALID,93.44,VALID,0,VALID,23.8183,VALID,62,VALID,0,
2012-02-28, 00:53:04,VALID,996.482,VALID,0,VALID,93.4934,VALID,0,VALID,23.8165,VALID,31,VALID,0,
2012-02-28, 00:54:04,VALID,996.505,VALID,0,VALID,93.4934,VALID,0,VALID,23.8183,VALID,343,VALID,0,
2012-02-28, 00:55:04,VALID,996.489,VALID,0,VALID,93.5315,VALID,0,VALID,23.8183,VALID,343,VALID,0,
2012-02-28, 00:56:04,VALID,996.495,VALID,0,VALID,93.6078,VALID,0,VALID,23.7988,VALID,343,VALID,0,
2012-02-28, 00:57:04,VALID,996.493,VALID,0,VALID,93.6612,VALID,0,VALID,23.797,VALID,343,VALID,0,
2012-02-28, 00:58:04,VALID,996.442,VALID,0,VALID,93.7375,VALID,0,VALID,23.8378,VALID,343,VALID,0,
2012-02-28, 00:59:04,VALID,996.399,VALID,0,VALID,93.7528,VALID,0,VALID,23.8378,VALID,343,VALID,0,
2012-02-28, 01:00:04,VALID,996.388,VALID,0,VALID,93.707,VALID,0,VALID,23.8378,VALID,343,VALID,0,
2012-02-28, 01:01:04,VALID,996.361,VALID,0,VALID,93.6612,VALID,0,VALID,23.8378,VALID,343,VALID,0,
2012-02-28, 01:02:04,VALID,996.334,VALID,0,VALID,93.6688,VALID,0,VALID,23.8378,VALID,343,VALID,0,
2012-02-28, 01:03:04,VALID,996.361,VALID,0,VALID,93.6994,VALID,0,VALID,23.836,VALID,343,VALID,0,
2012-02-28, 01:04:04,VALID,996.354,VALID,0,VALID,93.6841,VALID,0,VALID,23.836,VALID,343,VALID,0,
2012-02-28, 01:05:04,VALID,996.338,VALID,0,VALID,93.7451,VALID,0,VALID,23.8378,VALID,343,VALID,0,
2012-02-28, 01:06:04,VALID,996.348,VALID,0,VALID,93.7833,VALID,0,VALID,23.8378,VALID,343,VALID,0,
2012-02-28, 01:07:04,VALID,996.316,VALID,0,VALID,93.8138,VALID,0,VALID,23.8378,VALID,343,VALID,0,
2012-02-28, 01:08:04,VALID,996.27,VALID,0,VALID,93.8291,VALID,0,VALID,23.8378,VALID,343,VALID,0,
2012-02-28, 01:09:04,VALID,996.242,VALID,0,VALID,93.8443,VALID,0,VALID,23.8165,VALID,343,VALID,0,
2012-02-28, 01:10:04,VALID,996.196,VALID,0,VALID,93.8596,VALID,0,VALID,23.8378,VALID,343,VALID,0,
2012-02-28, 01:11:04,VALID,996.173,VALID,0,VALID,93.8901,VALID,0,VALID,23.8378,VALID,343,VALID,0,
2012-02-28, 01:12:04,VALID,996.153,VALID,0,VALID,93.8901,VALID,0,VALID,23.797,VALID,343,VALID,0,
2012-02-28, 01:13:04,VALID,996.136,VALID,0,VALID,93.8901,VALID,0,VALID,23.8378,VALID,343,VALID,0,
2012-02-28, 01:14:04,VALID,996.131,VALID,0,VALID,93.913,VALID,0,VALID,23.836,VALID,343,VALID,0,
2012-02-28, 01:15:04,VALID,996.119,VALID,0,VALID,93.9435,VALID,0,VALID,23.8165,VALID,343,VALID,0,
2012-02-28, 01:16:04,VALID,996.113,VALID,0,VALID,93.9588,VALID,0,VALID,23.836,VALID,354,VALID,0,
2012-02-28, 01:17:04,VALID,996.101,VALID,0,VALID,93.9511,VALID,0,VALID,23.8165,VALID,15,VALID,0.890625,
2012-02-28, 01:18:04,VALID,996.068,VALID,0,VALID,93.9359,VALID,0,VALID,23.8183,VALID,28,VALID,1.07813,
2012-02-28, 01:19:04,VALID,996.055,VALID,0,VALID,93.974,VALID,0,VALID,23.797,VALID,31,VALID,0.961328,
2012-02-28, 01:20:04,VALID,996.035,VALID,0,VALID,94.0122,VALID,0,VALID,23.8165,VALID,31,VALID,0.671094,
2012-02-28, 01:21:04,VALID,996.029,VALID,0,VALID,94.0351,VALID,0,VALID,23.836,VALID,31,VALID,0.326172,
2012-02-28, 01:22:04,VALID,996.032,VALID,0,VALID,94.0503,VALID,0,VALID,23.836,VALID,31,VALID,0.35,
2012-02-28, 01:23:04,VALID,996.063,VALID,0,VALID,94.0656,VALID,0,VALID,23.836,VALID,31,VALID,0.396094,
2012-02-28, 01:24:04,VALID,996.034,VALID,0,VALID,94.0732,VALID,0,VALID,23.836,VALID,31,VALID,0.6,
2012-02-28, 01:25:04,VALID,996.091,VALID,0,VALID,94.0656,VALID,0,VALID,23.836,VALID,31,VALID,1.20703,
2012-02-28, 01:26:04,VALID,996.143,VALID,0,VALID,94.058,VALID,0,VALID,23.836,VALID,30,VALID,1.56719,
2012-02-28, 01:27:04,VALID,996.19,VALID,0,VALID,94.0427,VALID,0,VALID,23.8165,VALID,18,VALID,1.75703,
2012-02-28, 01:28:04,VALID,996.192,VALID,0,VALID,94.0808,VALID,0,VALID,23.8573,VALID,16,VALID,2.08672,
2012-02-28, 01:29:04,VALID,996.235,VALID,0,VALID,94.1495,VALID,0,VALID,23.8573,VALID,21,VALID,1.87773,
2012-02-28, 01:30:04,VALID,996.228,VALID,0,VALID,94.2182,VALID,0,VALID,23.8555,VALID,31,VALID,2.12266,
2012-02-28, 01:31:04,VALID,996.229,VALID,0,VALID,94.2411,VALID,0,VALID,23.875,VALID,31,VALID,1.69922,
2012-02-28, 01:32:04,VALID,996.238,VALID,0,VALID,94.3021,VALID,0,VALID,23.875,VALID,47,VALID,1.64414,
2012-02-28, 01:33:04,VALID,996.228,VALID,0,VALID,94.386,VALID,0,VALID,23.9336,VALID,49,VALID,1.02344,
2012-02-28, 01:34:04,VALID,996.271,VALID,0,VALID,94.4013,VALID,0,VALID,23.9726,VALID,49,VALID,1.01211,
2012-02-28, 01:35:04,VALID,996.269,VALID,0,VALID,94.4394,VALID,0,VALID,24.0134,VALID,46,VALID,1.18242,
2012-02-28, 01:36:04,VALID,996.257,VALID,0,VALID,94.4318,VALID,0,VALID,24.0311,VALID,45,VALID,1.00469,
2012-02-28, 01:37:04,VALID,996.267,VALID,0,VALID,94.4318,VALID,0,VALID,24.0701,VALID,45,VALID,1.23555,
2012-02-28, 01:38:04,VALID,996.251,VALID,0,VALID,94.4165,VALID,0,VALID,24.0701,VALID,45,VALID,1.04492,
2012-02-28, 01:39:04,VALID,996.203,VALID,0,VALID,94.4242,VALID,0,VALID,24.15,VALID,51,VALID,0.948438,
2012-02-28, 01:40:04,VALID,996.223,VALID,0,VALID,94.4089,VALID,0,VALID,24.1482,VALID,45,VALID,1.30352,
2012-02-28, 01:41:04,VALID,996.239,VALID,0,VALID,94.386,VALID,0,VALID,24.1872,VALID,34,VALID,1.30547,
2012-02-28, 01:42:04,VALID,996.21,VALID,0,VALID,94.3937,VALID,0,VALID,24.1872,VALID,43,VALID,1.30781,
2012-02-28, 01:43:04,VALID,996.234,VALID,0,VALID,94.4013,VALID,0,VALID,24.2067,VALID,41,VALID,1.30391,
2012-02-28, 01:44:04,VALID,996.256,VALID,0,VALID,94.3937,VALID,0,VALID,24.2671,VALID,52,VALID,2.18477,
2012-02-28, 01:45:04,VALID,996.309,VALID,0,VALID,94.3708,VALID,0,VALID,24.2653,VALID,55,VALID,1.68711,
2012-02-28, 01:46:04,VALID,996.299,VALID,0,VALID,94.3555,VALID,0,VALID,24.2848,VALID,58,VALID,1.72852,
2012-02-28, 01:47:04,VALID,996.345,VALID,0,VALID,94.3326,VALID,0,VALID,24.3257,VALID,50,VALID,2.13867,
2012-02-28, 01:48:04,VALID,996.342,VALID,0,VALID,94.3021,VALID,0,VALID,24.3257,VALID,46,VALID,2.02891,
2012-02-28, 01:49:04,VALID,996.362,VALID,0,VALID,94.2563,VALID,0,VALID,24.3257,VALID,53,VALID,2.25273,
2012-02-28, 01:50:04,VALID,996.4,VALID,0,VALID,94.1724,VALID,0,VALID,24.3647,VALID,45,VALID,2.13906,
2012-02-28, 01:51:04,VALID,996.447,VALID,0,VALID,94.0808,VALID,0,VALID,24.3238,VALID,35,VALID,2.27852,
2012-02-28, 01:52:04,VALID,996.456,VALID,0,VALID,93.974,VALID,0,VALID,24.3647,VALID,42,VALID,2.15273,
2012-02-28, 01:53:04,VALID,996.455,VALID,0,VALID,93.852,VALID,0,VALID,24.3647,VALID,37,VALID,1.98945,
2012-02-28, 01:54:04,VALID,996.481,VALID,0,VALID,93.7146,VALID,0,VALID,24.3238,VALID,37,VALID,2.58828,
2012-02-28, 01:55:04,VALID,996.471,VALID,0,VALID,93.4857,VALID,0,VALID,24.3238,VALID,41,VALID,2.94141,
2012-02-28, 01:56:04,VALID,996.493,VALID,0,VALID,93.4323,VALID,0,VALID,24.3043,VALID,42,VALID,2.96719,
2012-02-28, 01:57:04,VALID,996.483,VALID,0.5,VALID,93.3942,VALID,0,VALID,24.2653,VALID,29,VALID,2.5543,
2012-02-28, 01:58:04,VALID,996.516,VALID,0,VALID,93.4552,VALID,0,VALID,24.2086,VALID,30,VALID,2.59531,
2012-02-28, 01:59:04,VALID,996.515,VALID,0,VALID,93.5697,VALID,0,VALID,24.1287,VALID,56,VALID,1.94805,
2012-02-28, 02:00:04,VALID,996.542,VALID,0,VALID,93.6688,VALID,0,VALID,24.0915,VALID,45,VALID,1.34531,
2012-02-28, 02:01:04,VALID,996.527,VALID,0,VALID,93.7909,VALID,0,VALID,24.072,VALID,27,VALID,0.903516,
2012-02-28, 02:02:04,VALID,996.499,VALID,0,VALID,93.8825,VALID,0,VALID,24.0116,VALID,345,VALID,0.823047,
2012-02-28, 02:03:04,VALID,996.464,VALID,0,VALID,94.0198,VALID,0,VALID,24.0116,VALID,311,VALID,0.891406,
2012-02-28, 02:04:04,VALID,996.465,VALID,0.5,VALID,94.0885,VALID,0,VALID,24.0134,VALID,311,VALID,1.01211,
2012-02-28, 02:05:04,VALID,996.41,VALID,0,VALID,94.1266,VALID,0,VALID,23.9726,VALID,353,VALID,1.02148,
2012-02-28, 02:06:04,VALID,996.412,VALID,0,VALID,94.1724,VALID,0,VALID,23.9939,VALID,356,VALID,1.16172,
2012-02-28, 02:07:04,VALID,996.383,VALID,0,VALID,94.2334,VALID,0,VALID,23.9939,VALID,322,VALID,1.10391,
2012-02-28, 02:08:04,VALID,996.382,VALID,0,VALID,94.2563,VALID,0,VALID,23.9726,VALID,343,VALID,1.05859,
2012-02-28, 02:09:04,VALID,996.361,VALID,0,VALID,94.2487,VALID,0,VALID,23.9726,VALID,334,VALID,0.646094,
2012-02-28, 02:10:04,VALID,996.365,VALID,0,VALID,94.2868,VALID,0,VALID,23.9531,VALID,322,VALID,0.842188,
2012-02-28, 02:11:04,VALID,996.35,VALID,0,VALID,94.3097,VALID,0,VALID,23.9726,VALID,331,VALID,0.907031,
2012-02-28, 02:12:04,VALID,996.321,VALID,0,VALID,94.325,VALID,0,VALID,23.9726,VALID,358,VALID,0.978516,
2012-02-28, 02:13:04,VALID,996.326,VALID,0,VALID,94.3326,VALID,0,VALID,23.9726,VALID,338,VALID,1.35625,
2012-02-28, 02:14:04,VALID,996.3,VALID,0,VALID,94.3097,VALID,0,VALID,23.9744,VALID,342,VALID,1.00195,
2012-02-28, 02:15:04,VALID,996.277,VALID,0,VALID,94.2792,VALID,0.104696,VALID,23.914,VALID,330,VALID,1.2168,
2012-02-28, 02:16:04,VALID,996.266,VALID,0,VALID,94.1571,VALID,0,VALID,23.8945,VALID,324,VALID,1.24453,
2012-02-28, 02:17:04,VALID,996.268,VALID,0,VALID,94.0503,VALID,0,VALID,23.8963,VALID,336,VALID,1.14102,
2012-02-28, 02:18:04,VALID,996.248,VALID,0,VALID,94.0427,VALID,0,VALID,23.8768,VALID,330,VALID,1.04414,
2012-02-28, 02:19:04,VALID,996.261,VALID,0,VALID,93.9283,VALID,0,VALID,23.8165,VALID,304,VALID,1.37266,
2012-02-28, 02:20:04,VALID,996.253,VALID,0,VALID,93.8443,VALID,0,VALID,23.8165,VALID,324,VALID,0.461719,
2012-02-28, 02:21:04,VALID,996.269,VALID,0,VALID,93.8214,VALID,0,VALID,23.797,VALID,322,VALID,0.951953,
2012-02-28, 02:22:04,VALID,996.266,VALID,0,VALID,93.7299,VALID,0,VALID,23.7775,VALID,338,VALID,0.755859,
2012-02-28, 02:23:04,VALID,996.29,VALID,0,VALID,93.7146,VALID,0,VALID,23.7988,VALID,265,VALID,0.298438,
2012-02-28, 02:24:04,VALID,996.269,VALID,0,VALID,93.7375,VALID,0,VALID,23.7793,VALID,270,VALID,0.815234,
2012-02-28, 02:25:04,VALID,996.316,VALID,0,VALID,93.7528,VALID,0,VALID,23.7597,VALID,282,VALID,0.660547,
2012-02-28, 02:26:04,VALID,996.304,VALID,0,VALID,93.7528,VALID,0,VALID,23.7579,VALID,291,VALID,0.663281,
2012-02-28, 02:27:04,VALID,996.353,VALID,0,VALID,93.768,VALID,0,VALID,23.7775,VALID,305,VALID,0.734766,
2012-02-28, 02:28:04,VALID,996.353,VALID,0,VALID,93.7833,VALID,0,VALID,23.7579,VALID,335,VALID,0.961328,
2012-02-28, 02:29:04,VALID,996.38,VALID,0,VALID,93.7909,VALID,0,VALID,23.7988,VALID,351,VALID,0.973437,
2012-02-28, 02:30:04,VALID,996.424,VALID,0,VALID,93.7451,VALID,0,VALID,23.7793,VALID,351,VALID,1.55,
2012-02-28, 02:31:04,VALID,996.45,VALID,0,VALID,93.6612,VALID,0,VALID,23.7775,VALID,15,VALID,1.39141,
2012-02-28, 02:32:04,VALID,996.457,VALID,0,VALID,93.5697,VALID,0,VALID,23.7775,VALID,3,VALID,1.25156,
2012-02-28, 02:33:04,VALID,996.456,VALID,0,VALID,93.5315,VALID,0,VALID,23.8183,VALID,21,VALID,1.03711,
2012-02-28, 02:34:04,VALID,996.469,VALID,0,VALID,93.4781,VALID,0,VALID,23.797,VALID,15,VALID,1.23711,
2012-02-28, 02:35:04,VALID,996.462,VALID,0,VALID,93.4552,VALID,0,VALID,23.8183,VALID,32,VALID,0.980859,
2012-02-28, 02:36:04,VALID,996.425,VALID,0,VALID,93.4476,VALID,0,VALID,23.8165,VALID,39,VALID,1.26211,
2012-02-28, 02:37:04,VALID,996.434,VALID,0,VALID,93.501,VALID,0,VALID,23.836,VALID,39,VALID,1.04648,
2012-02-28, 02:38:04,VALID,996.393,VALID,0,VALID,93.4857,VALID,0,VALID,23.8573,VALID,42,VALID,1.40469,
2012-02-28, 02:39:04,VALID,996.364,VALID,0,VALID,93.5468,VALID,0,VALID,23.8555,VALID,33,VALID,1.12578,
2012-02-28, 02:40:04,VALID,996.384,VALID,0,VALID,93.6688,VALID,0,VALID,23.8945,VALID,34,VALID,1.12578,
2012-02-28, 02:41:04,VALID,996.368,VALID,0,VALID,93.7528,VALID,0,VALID,23.9354,VALID,21,VALID,1.11602,
2012-02-28, 02:42:04,VALID,996.382,VALID,0,VALID,93.768,VALID,0,VALID,23.914,VALID,22,VALID,1.52383,
2012-02-28, 02:43:04,VALID,996.379,VALID,0,VALID,93.8291,VALID,0,VALID,23.9336,VALID,1,VALID,1.70664,
2012-02-28, 02:44:04,VALID,996.367,VALID,0,VALID,93.8596,VALID,0,VALID,23.9336,VALID,334,VALID,1.375,
2012-02-28, 02:45:04,VALID,996.373,VALID,0,VALID,93.8672,VALID,0,VALID,23.9336,VALID,341,VALID,1.275,
2012-02-28, 02:46:04,VALID,996.398,VALID,0,VALID,93.8825,VALID,0,VALID,23.9336,VALID,343,VALID,1.46641,
2012-02-28, 02:47:04,VALID,996.396,VALID,0,VALID,93.8901,VALID,0,VALID,23.9354,VALID,329,VALID,1.33828,
2012-02-28, 02:48:04,VALID,996.401,VALID,0,VALID,93.8977,VALID,0,VALID,23.914,VALID,316,VALID,1.16133,
2012-02-28, 02:49:04,VALID,996.416,VALID,0,VALID,93.9435,VALID,0,VALID,23.8945,VALID,333,VALID,0.969531,
2012-02-28, 02:50:04,VALID,996.41,VALID,0.5,VALID,93.9435,VALID,0,VALID,23.8963,VALID,345,VALID,1.79805,
2012-02-28, 02:51:04,VALID,996.418,VALID,0,VALID,93.9893,VALID,0,VALID,23.8555,VALID,353,VALID,1.43242,
2012-02-28, 02:52:04,VALID,996.43,VALID,0,VALID,94.0427,VALID,0,VALID,23.8768,VALID,360,VALID,1.47578,
2012-02-28, 02:53:04,VALID,996.438,VALID,0,VALID,94.0961,VALID,0,VALID,23.8555,VALID,360,VALID,1.4168,
2012-02-28, 02:54:04,VALID,996.408,VALID,0,VALID,94.1495,VALID,0,VALID,23.8555,VALID,16,VALID,1.92539,
2012-02-28, 02:55:04,VALID,996.372,VALID,0,VALID,94.2029,VALID,0,VALID,23.875,VALID,359,VALID,2.25117,
2012-02-28, 02:56:04,VALID,996.375,VALID,0.5,VALID,94.2411,VALID,0,VALID,23.8963,VALID,1,VALID,1.59102,
2012-02-28, 02:57:04,VALID,996.342,VALID,0,VALID,94.264,VALID,0,VALID,23.8768,VALID,12,VALID,1.85352,
2012-02-28, 02:58:04,VALID,996.317,VALID,0,VALID,94.2945,VALID,0,VALID,23.875,VALID,357,VALID,1.43438,
2012-02-28, 02:59:04,VALID,996.28,VALID,0,VALID,94.2716,VALID,0,VALID,23.8768,VALID,3,VALID,1.65117,
2012-02-28, 03:00:04,VALID,996.264,VALID,0,VALID,94.3174,VALID,0,VALID,23.836,VALID,356,VALID,1.65469,
2012-02-28, 03:01:04,VALID,996.202,VALID,0,VALID,94.3097,VALID,0,VALID,23.8165,VALID,11,VALID,1.36289,
2012-02-28, 03:02:04,VALID,996.219,VALID,0.5,VALID,94.3097,VALID,0,VALID,23.8183,VALID,12,VALID,1.48789,
2012-02-28, 03:03:04,VALID,996.194,VALID,0,VALID,94.325,VALID,0,VALID,23.8183,VALID,9,VALID,1.51563,
2012-02-28, 03:04:04,VALID,996.212,VALID,0,VALID,94.3784,VALID,0,VALID,23.7988,VALID,9,VALID,1.80938,
2012-02-28, 03:05:04,VALID,996.228,VALID,0,VALID,94.3937,VALID,0,VALID,23.7775,VALID,5,VALID,1.30781,
2012-02-28, 03:06:04,VALID,996.184,VALID,0,VALID,94.3937,VALID,0,VALID,23.7793,VALID,351,VALID,1.28711,
2012-02-28, 03:07:04,VALID,996.206,VALID,0.5,VALID,94.4471,VALID,0,VALID,23.7793,VALID,347,VALID,1.67539,
2012-02-28, 03:08:04,VALID,996.208,VALID,0,VALID,94.4852,VALID,0,VALID,23.7384,VALID,336,VALID,1.34687,
2012-02-28, 03:09:04,VALID,996.213,VALID,0,VALID,94.4928,VALID,0,VALID,23.7579,VALID,334,VALID,1.08047,
2012-02-28, 03:10:04,VALID,996.178,VALID,0,VALID,94.5081,VALID,0,VALID,23.7384,VALID,341,VALID,0.998438,
2012-02-28, 03:11:04,VALID,996.184,VALID,0.5,VALID,94.5615,VALID,0,VALID,23.7384,VALID,341,VALID,0.926953,
2012-02-28, 03:12:04,VALID,996.16,VALID,0,VALID,94.592,VALID,0,VALID,23.7189,VALID,336,VALID,1.25547,
2012-02-28, 03:13:04,VALID,996.156,VALID,0,VALID,94.6073,VALID,0,VALID,23.7402,VALID,350,VALID,1.28398,
2012-02-28, 03:14:04,VALID,996.181,VALID,0,VALID,94.6073,VALID,0,VALID,23.7207,VALID,336,VALID,1.4707,
2012-02-28, 03:15:04,VALID,996.153,VALID,0,VALID,94.6073,VALID,0,VALID,23.6994,VALID,334,VALID,1.55273,
2012-02-28, 03:16:04,VALID,996.161,VALID,0,VALID,94.6454,VALID,0,VALID,23.7012,VALID,338,VALID,1.63867,
2012-02-28, 03:17:04,VALID,996.158,VALID,0,VALID,94.6683,VALID,0,VALID,23.6799,VALID,338,VALID,1.44023,
2012-02-28, 03:18:04,VALID,996.164,VALID,0,VALID,94.6836,VALID,0,VALID,23.6604,VALID,351,VALID,1.58984,
2012-02-28, 03:19:04,VALID,996.177,VALID,0,VALID,94.6988,VALID,0,VALID,23.6817,VALID,355,VALID,2.12227,
2012-02-28, 03:20:04,VALID,996.202,VALID,0.5,VALID,94.7065,VALID,0,VALID,23.6817,VALID,346,VALID,1.41875,
2012-02-28, 03:21:04,VALID,996.199,VALID,0,VALID,94.7141,VALID,0,VALID,23.6622,VALID,350,VALID,1.95625,
2012-02-28, 03:22:04,VALID,996.246,VALID,0,VALID,94.7294,VALID,0,VALID,23.6409,VALID,354,VALID,1.14883,
2012-02-28, 03:23:04,VALID,996.285,VALID,0,VALID,94.7294,VALID,0,VALID,23.6409,VALID,358,VALID,1.96563,
2012-02-28, 03:24:04,VALID,996.292,VALID,0,VALID,94.7446,VALID,0,VALID,23.6214,VALID,10,VALID,2.30977,
2012-02-28, 03:25:04,VALID,996.344,VALID,0,VALID,94.7828,VALID,0,VALID,23.6409,VALID,18,VALID,1.97969,
2012-02-28, 03:26:04,VALID,996.317,VALID,0,VALID,94.7675,VALID,0,VALID,23.6427,VALID,14,VALID,2.06094,
2012-02-28, 03:27:04,VALID,996.342,VALID,0,VALID,94.798,VALID,0,VALID,23.6622,VALID,14,VALID,1.99648,
2012-02-28, 03:28:04,VALID,996.383,VALID,0,VALID,94.798,VALID,0,VALID,23.6409,VALID,7,VALID,2.02773,
2012-02-28, 03:29:04,VALID,996.348,VALID,0,VALID,94.8133,VALID,0,VALID,23.6409,VALID,5,VALID,2.72305,
2012-02-28, 03:30:04,VALID,996.365,VALID,0,VALID,94.8133,VALID,0,VALID,23.6409,VALID,10,VALID,2.33672,
2012-02-28, 03:31:04,VALID,996.362,VALID,0,VALID,94.8209,VALID,0,VALID,23.6622,VALID,13,VALID,2.69844,
2012-02-28, 03:32:04,VALID,996.309,VALID,0,VALID,94.8285,VALID,0,VALID,23.6622,VALID,358,VALID,3.27969,
2012-02-28, 03:33:04,VALID,996.38,VALID,0,VALID,94.8285,VALID,0,VALID,23.6214,VALID,13,VALID,2.14219,
2012-02-28, 03:34:04,VALID,996.322,VALID,0,VALID,94.7751,VALID,0,VALID,23.6019,VALID,11,VALID,2.91875,
2012-02-28, 03:35:04,VALID,996.328,VALID,0,VALID,94.7523,VALID,0,VALID,23.6232,VALID,3,VALID,1.95938,
2012-02-28, 03:36:04,VALID,996.345,VALID,0,VALID,94.7141,VALID,0,VALID,23.5628,VALID,5,VALID,2.17227,
2012-02-28, 03:37:04,VALID,996.325,VALID,0,VALID,94.7141,VALID,0,VALID,23.5433,VALID,3,VALID,2.19219,
2012-02-28, 03:38:04,VALID,996.324,VALID,0,VALID,94.6836,VALID,0,VALID,23.5433,VALID,4,VALID,2.04219,
2012-02-28, 03:39:04,VALID,996.338,VALID,0,VALID,94.676,VALID,0,VALID,23.5451,VALID,9,VALID,1.55859,
2012-02-28, 03:40:04,VALID,996.378,VALID,0,VALID,94.6988,VALID,0,VALID,23.5451,VALID,347,VALID,0.990625,
2012-02-28, 03:41:04,VALID,996.394,VALID,0,VALID,94.6836,VALID,0,VALID,23.5043,VALID,348,VALID,0.875391,
2012-02-28, 03:42:04,VALID,996.413,VALID,0,VALID,94.6988,VALID,0,VALID,23.5238,VALID,4,VALID,0.944531,
2012-02-28, 03:43:04,VALID,996.448,VALID,0,VALID,94.6912,VALID,0,VALID,23.5238,VALID,342,VALID,0.142969,
2012-02-28, 03:44:04,VALID,996.474,VALID,0,VALID,94.7294,VALID,0,VALID,23.5043,VALID,341,VALID,0.426953,
2012-02-28, 03:45:04,VALID,996.488,VALID,0,VALID,94.7523,VALID,0,VALID,23.5238,VALID,341,VALID,0.450781,
2012-02-28, 03:46:04,VALID,996.53,VALID,0,VALID,94.7523,VALID,0,VALID,23.5043,VALID,297,VALID,0.675,
2012-02-28, 03:47:04,VALID,996.53,VALID,0,VALID,94.7904,VALID,0,VALID,23.5256,VALID,298,VALID,0.355859,
2012-02-28, 03:48:04,VALID,996.576,VALID,0,VALID,94.7751,VALID,0,VALID,23.5043,VALID,298,VALID,0.410156,
2012-02-28, 03:49:04,VALID,996.556,VALID,0,VALID,94.8362,VALID,0,VALID,23.5238,VALID,298,VALID,0.362109,